Stations météo

réclame
Mon MeteoGroup
Brüssel, Belgique (6451): Température de l'air & dewpoint: 17.09.2018 04:00:00 - 23.09.2018 04:00:00 (CEST)Brüssel, Belgique (6451): Vitesse du vent & gusts: 17.09.2018 04:00:00 - 23.09.2018 04:00:00 (CEST)Brüssel, Belgique (6451): Direction du vent: 17.09.2018 04:00:00 - 23.09.2018 04:00:00 (CEST)Brüssel, Belgique (6451): reduced air pressure: 17.09.2018 04:00:00 - 23.09.2018 04:00:00 (CEST)Brüssel, Belgique (6451): visibility: 17.09.2018 04:00:00 - 23.09.2018 04:00:00 (CEST)
Date & Time tt [°C] td [°C] ff [km/h] ff [knt] fx [km/h] fx [knt] dd ppp [hPa] vv [km]
23.09.2018 04:00:00 11,0 10,8 8 4 14 8 E 1013,0 4,5
23.09.2018 03:00:00 10,9 10,7 8 4 14 8 E 1013,9 4,2
23.09.2018 02:00:00 10,8 10,5 9 5 - - ESE 1014,7 6
23.09.2018 01:00:00 10,6 10,4 8 4 11 6 E 1016,1 4,5
23.09.2018 00:00:00 10,6 10,3 9 5 14 8 SE 1016,9 5
22.09.2018 23:00:00 10,7 10,4 8 4 - - SSE 1018,3 6
22.09.2018 22:00:00 10,5 10,2 5 3 11 6 SE 1018,6 6
22.09.2018 21:00:00 10,6 10,1 5 3 7 4 S 1019,2 10
22.09.2018 20:00:00 11,2 10,8 5 3 - - S 1019,3 10
22.09.2018 19:00:00 11,7 10,6 2 1 7 4 - 1019,3 10
22.09.2018 18:00:00 11,9 9,8 5 3 22 12 WSW 1020,1 10
22.09.2018 17:00:00 12,9 9,0 13 7 - - WSW 1020,4 8
22.09.2018 16:00:00 13,0 10,4 9 5 29 16 WSW 1020,9 8
22.09.2018 15:00:00 14,6 7,9 16 9 36 19 WSW 1020,8 10
22.09.2018 14:00:00 15,3 9,3 22 12 - - W 1020,8 10
22.09.2018 13:00:00 13,7 9,2 22 12 32 18 WSW 1020,9 10
22.09.2018 12:00:00 16,2 8,4 21 11 32 18 WSW 1020,8 10
22.09.2018 11:00:00 14,0 8,9 18 10 - - SW 1021,2 10
22.09.2018 10:00:00 12,7 8,9 16 9 25 14 SW 1021,1 10
22.09.2018 09:00:00 11,0 8,5 13 7 22 12 SSW 1021,2 10
22.09.2018 08:00:00 10,4 8,2 15 8 - - SSW 1020,8 10
22.09.2018 07:00:00 10,6 8,0 16 9 25 14 SW 1020,7 10
22.09.2018 06:00:00 10,7 7,9 16 9 25 14 SW 1020,3 10
22.09.2018 05:00:00 10,9 8,0 13 7 - - SW 1020,2 10
22.09.2018 04:00:00 11,5 7,7 21 11 36 19 SW 1020,2 10
22.09.2018 03:00:00 12,1 7,2 21 11 36 19 WSW 1019,6 10
22.09.2018 02:00:00 12,2 7,6 22 12 - - WSW 1019,2 10
22.09.2018 01:00:00 12,6 7,6 26 14 43 23 WSW 1018,5 10
22.09.2018 00:00:00 13,0 7,4 26 14 47 25 WSW 1017,6 10
21.09.2018 23:00:00 13,4 6,9 28 15 - - WSW 1017,0 10
21.09.2018 22:00:00 13,5 6,3 28 15 47 25 WSW 1016,3 10
21.09.2018 21:00:00 14,0 5,2 28 15 50 27 WSW 1015,4 10
21.09.2018 20:00:00 15,0 4,3 34 18 - - WSW 1014,3 10
21.09.2018 19:00:00 16,0 3,7 35 19 58 31 WSW 1013,6 10
21.09.2018 18:00:00 16,0 4,4 29 16 47 25 W 1013,2 10
21.09.2018 17:00:00 16,9 3,4 31 17 - - W 1012,7 10
21.09.2018 16:00:00 16,5 3,8 35 19 54 29 W 1012,5 10
21.09.2018 15:00:00 15,4 5,6 35 19 50 27 W 1011,7 10
21.09.2018 14:00:00 14,9 6,8 34 18 - - W 1010,9 10
21.09.2018 13:00:00 15,1 7,4 31 17 50 27 W 1009,7 10
21.09.2018 12:00:00 15,2 9,5 31 17 61 33 W 1008,6 10
21.09.2018 11:00:00 15,7 12,8 22 12 - - SW 1007,2 10
21.09.2018 10:00:00 14,4 13,1 22 12 54 29 SW 1006,3 10
21.09.2018 09:00:00 14,1 12,2 39 21 68 37 W 1005,9 5
21.09.2018 08:00:00 16,9 14,4 34 18 - - SW 1003,8 8
21.09.2018 07:00:00 18,0 13,3 34 18 61 33 SSW 1003,6 10
21.09.2018 06:00:00 18,7 12,0 28 15 40 21 S 1003,8 10
21.09.2018 05:00:00 18,9 12,2 22 12 - - SSW 1004,6 10
21.09.2018 04:00:00 19,3 12,6 26 14 43 23 SSW 1005,5 10
21.09.2018 03:00:00 20,0 12,5 24 13 43 23 SSW 1006,7 10
21.09.2018 02:00:00 20,3 12,3 21 11 - - SSW 1007,8 10
21.09.2018 01:00:00 20,0 12,4 18 10 29 16 SSW 1008,7 10
21.09.2018 00:00:00 20,0 12,1 18 10 29 16 SSW 1009,3 10
20.09.2018 23:00:00 19,9 12,5 18 10 - - S 1009,8 10
20.09.2018 22:00:00 20,1 12,3 13 7 22 12 S 1010,9 10
20.09.2018 21:00:00 21,2 11,8 13 7 25 14 SSW 1011,6 10
20.09.2018 20:00:00 21,3 12,1 11 6 - - S 1012,1 10
20.09.2018 19:00:00 22,8 12,6 11 6 29 16 SSW 1012,5 30
20.09.2018 18:00:00 23,9 13,0 15 8 36 19 SSW 1013,4 10
20.09.2018 17:00:00 23,9 12,1 21 11 - - SSW 1014,2 10
20.09.2018 16:00:00 23,7 12,6 22 12 36 19 SSW 1015,1 10
20.09.2018 15:00:00 23,2 12,2 24 13 40 21 SSW 1016,0 10
20.09.2018 14:00:00 22,7 13,1 22 12 - - SSW 1016,7 10
20.09.2018 13:00:00 22,0 13,2 22 12 36 19 SW 1017,2 10
20.09.2018 12:00:00 21,0 13,7 18 10 29 16 SW 1017,5 10
20.09.2018 11:00:00 20,1 14,0 15 8 - - SW 1017,7 10
20.09.2018 10:00:00 18,5 13,5 21 11 29 16 SSW 1017,7 10
20.09.2018 09:00:00 17,1 13,3 13 7 18 10 SSW 1017,7 10
20.09.2018 08:00:00 15,2 12,8 13 7 - - S 1017,5 10
20.09.2018 07:00:00 15,6 13,0 9 5 18 10 SSW 1017,5 10
20.09.2018 06:00:00 15,4 12,4 11 6 14 8 S 1017,6 10
20.09.2018 05:00:00 15,2 12,5 9 5 - - S 1017,8 10
20.09.2018 04:00:00 14,4 12,1 9 5 14 8 SSE 1017,6 10
20.09.2018 03:00:00 15,9 12,2 13 7 14 8 S 1017,6 10
20.09.2018 02:00:00 16,0 12,2 13 7 - - S 1017,8 10
20.09.2018 01:00:00 17,7 12,5 9 5 18 10 SSW 1018,1 10
20.09.2018 00:00:00 18,0 12,1 11 6 18 10 SSW 1018,6 40
19.09.2018 23:00:00 18,4 12,7 11 6 - - SSW 1018,7 10
19.09.2018 22:00:00 18,8 12,7 11 6 14 8 S 1018,5 10
19.09.2018 21:00:00 19,7 13,2 9 5 18 10 S 1018,2 10
19.09.2018 20:00:00 20,9 12,7 11 6 - - SSW 1018,1 10
19.09.2018 19:00:00 22,2 12,2 18 10 36 19 WSW 1017,8 10
19.09.2018 18:00:00 23,7 11,7 24 13 43 23 WSW 1017,4 10
19.09.2018 17:00:00 24,4 11,6 25 14 - - WSW 1017,3 18
19.09.2018 16:00:00 24,7 11,8 25 14 40 21 SW 1017,3 18
19.09.2018 15:00:00 24,3 11,5 22 12 47 25 SSW 1017,2 10
19.09.2018 14:00:00 23,4 12,0 25 14 - - SW 1017,6 18
19.09.2018 13:00:00 22,8 12,6 22 12 36 19 SW 1017,7 10
19.09.2018 12:00:00 21,5 13,2 24 13 36 19 WSW 1018,0 10
19.09.2018 11:00:00 21,1 13,8 21 11 - - SW 1017,3 10
19.09.2018 10:00:00 19,5 14,6 18 10 29 16 SW 1017,2 10
19.09.2018 09:00:00 17,9 15,1 9 5 22 12 S 1016,7 10
19.09.2018 08:00:00 16,1 14,6 14 8 - - S 1016,3 18
19.09.2018 07:00:00 15,7 14,2 15 8 22 12 S 1016,1 10
19.09.2018 06:00:00 15,2 13,8 15 8 22 12 S 1016,5 10
19.09.2018 05:00:00 15,3 13,6 14 8 - - S 1016,8 18
19.09.2018 04:00:00 15,3 13,0 11 6 14 8 S 1016,5 10
19.09.2018 03:00:00 14,3 12,6 11 6 11 6 S 1016,9 18
19.09.2018 02:00:00 14,2 12,6 9 5 - - S 1016,9 10
19.09.2018 01:00:00 14,6 12,7 11 6 11 6 S 1017,0 18
19.09.2018 00:00:00 15,3 12,5 8 4 11 6 S 1016,8 10
18.09.2018 23:00:00 17,6 12,9 8 4 - - WSW 1016,6 10
18.09.2018 22:00:00 19,6 13,3 13 7 22 12 W 1016,4 10
18.09.2018 21:00:00 20,3 13,2 13 7 22 12 W 1015,8 10
18.09.2018 20:00:00 21,6 13,0 15 8 - - W 1015,0 10
18.09.2018 19:00:00 24,0 12,3 21 11 40 21 W 1014,4 10
18.09.2018 18:00:00 24,6 12,3 21 11 40 21 WSW 1014,2 10
18.09.2018 17:00:00 25,1 11,8 24 13 - - WSW 1014,0 10
18.09.2018 16:00:00 25,3 12,1 29 16 43 23 W 1013,8 10
18.09.2018 15:00:00 25,5 11,7 29 16 43 23 WSW 1013,4 10
18.09.2018 14:00:00 25,9 12,2 26 14 - - WSW 1013,0 10
18.09.2018 13:00:00 25,0 12,7 22 12 36 19 SW 1012,6 10
18.09.2018 12:00:00 23,6 12,7 24 13 36 19 SW 1012,8 10
18.09.2018 11:00:00 22,3 11,5 21 11 - - SW 1012,6 10
18.09.2018 10:00:00 21,8 11,3 26 14 36 19 WSW 1012,2 10
18.09.2018 09:00:00 20,5 11,1 18 10 32 18 SSW 1011,6 10
18.09.2018 08:00:00 18,8 9,9 18 10 - - S 1010,9 50
18.09.2018 07:00:00 18,5 10,0 22 12 29 16 S 1010,5 10
18.09.2018 06:00:00 18,3 9,8 22 12 29 16 S 1010,8 10
18.09.2018 05:00:00 17,5 9,7 21 11 - - S 1011,1 10
18.09.2018 04:00:00 17,7 8,8 22 12 29 16 S 1011,5 10
18.09.2018 03:00:00 17,2 8,0 15 8 22 12 S 1012,0 10
18.09.2018 02:00:00 17,3 7,5 16 9 - - S 1012,6 10
18.09.2018 01:00:00 17,2 7,6 11 6 14 8 SSE 1013,1 10
18.09.2018 00:00:00 16,1 7,2 5 3 11 6 SE 1013,8 10
17.09.2018 23:00:00 16,6 7,3 9 5 - - SE 1014,3 10
17.09.2018 22:00:00 16,7 7,6 5 3 7 4 SE 1014,7 10
17.09.2018 21:00:00 17,8 6,7 8 4 11 6 SE 1015,0 10
17.09.2018 20:00:00 20,6 7,4 9 5 - - SE 1015,2 10
17.09.2018 19:00:00 24,3 4,6 8 4 11 6 SE 1015,5 10
17.09.2018 18:00:00 25,7 5,3 8 4 14 8 SSW 1015,9 10
17.09.2018 17:00:00 25,4 5,0 8 4 - - SSE 1016,7 10
17.09.2018 16:00:00 25,4 5,6 9 5 18 10 SSW 1017,5 10
17.09.2018 15:00:00 24,8 7,0 9 5 22 12 SSW 1018,1 10
17.09.2018 14:00:00 23,6 7,6 9 5 - - SSW 1018,8 10
17.09.2018 13:00:00 23,0 8,3 11 6 18 10 SSW 1019,3 50
17.09.2018 12:00:00 21,1 10,6 11 6 14 8 S 1019,8 50
17.09.2018 11:00:00 19,7 10,3 9 5 - - S 1020,0 10
17.09.2018 10:00:00 16,8 10,6 4 2 14 8 - 1020,3 10
17.09.2018 09:00:00 14,1 9,3 11 6 14 8 S 1020,1 50
17.09.2018 08:00:00 9,2 5,7 5 3 - - S 1020,1 10
17.09.2018 07:00:00 11,4 8,3 13 7 14 8 S 1019,5 10
17.09.2018 06:00:00 10,9 8,3 13 7 14 8 S 1019,7 10
17.09.2018 05:00:00 10,1 7,0 4 2 - - S 1020,2 10
17.09.2018 04:00:00 10,8 8,0 11 6 11 6 S 1019,9 30

tt = Température de l'air
td = dewpoint
ff = Vitesse du vent
fx = gusts
dd = Direction du vent
ppp = reduced air pressure
vv = visibility

stations d'obs. à proximité